Location: Laterina
(43.5167°N, 11.7167°E)
Time: 23:17:23
(UTC+00:00)

Cosmos 1125 Rocket - Pass Details

Date: 18 June 2021
Orbit: 757 x 780 km, 74.0° (Epoch: 29 July)

Event Time Altitude Azimuth Distance (km) Brightness Sun altitude
Rises 02:18:56 0° 337° (NNW) 3,242 7.1 -10.8°
Reaches altitude 10° 02:21:19 10° 336° (NNW) 2,315 6.3 -10.5°
Maximum altitude 02:26:33 74° 253° (WSW) 806 3.5 -9.9°
Drops below altitude 10° 02:31:48 10° 169° (SSE) 2,314 5.7 -9.2°
Sets 02:34:11 0° 167° (SSE) 3,240 6.4 -8.9°
